Content
SEND FEEDBACK

Daily
Averages
Monthly
Summary
United States of America

MALDEN, MISSOURI


Home > North America > United States > Missouri
Elevation: 89 meters     Latitude: 36 36N     Longitude: 089 59W

WEATHER
 
SELECT A DAY
Number of Records: 207,504;   Date Range: 1/1/95 - 7/7/14
 
SHARE

PRINT THIS DATA

[ ← Previous Day ]
WEATHER ALMANAC - 7 DECEMBER, 2013
[ Next Day → ]
[ °F ]   °C
Weather ElementAverageHighLow
Temperature-7.1 °C-4.4 °C (12:53 pm)-11.1 °C (6:53 am)
Dewpoint-13.8 °C-11.7 °C (11:53 pm)-16.7 °C (6:53 am)
Humidity59.8 %65 % (1:53 am)53 % (12:53 pm)
Barometer1035.6 hPa1039.6 hPa (9:53 am)1030.8 hPa (11:53 pm)
Wind Speed19.2 km/h24.1 km/h (1:53 pm)
Weather ElementAverage
Visibility15.1 km
Wind DirectionNNE (37.8 °)

Weather ElementTotal
Precipitation72.64 mm
Heating Degree Days26.1 (Base 18.3)
Averaged from 23 records on 7 December, 2013
WEATHER CONDITIONS BREAKOUT
WIND DIRECTION BREAKOUT
WEATHER BY HOUR - 7 DECEMBER, 2013
[ °F ]   °C
Local TimeTemperatureDewpointHumidityBarometerVisibilityWind DirectionWind SpeedGust SpeedPrecipitationEventsConditions
1:53 AM-6.7 °C-12.2 °C65 %1034.9 hPa16.1 kmNorth (360°)18.5 km/h7.62 mmOvercast
2:53 AM-7.8 °C-13.9 °C62 %1035.9 hPa16.1 kmNorth (10°)18.5 km/h6.6 mmClear
3:53 AM-8.9 °C-15 °C62 %1036.2 hPa16.1 kmNorth (10°)18.5 km/h5.84 mmClear
4:53 AM-10 °C-15.6 °C64 %1036.6 hPa16.1 kmNorth (10°)20.4 km/hClear
5:53 AM-10.6 °C-16.1 °C65 %1037.3 hPa16.1 kmNorth (10°)20.4 km/hClear
6:53 AM-11.1 °C-16.7 °C64 %1037.9 hPa16.1 kmNorth (10°)18.5 km/hClear
7:53 AM-11.1 °C-16.7 °C64 %1038.3 hPa16.1 kmNorth (10°)20.4 km/hClear
8:53 AM-9.4 °C-15 °C64 %1038.9 hPa16.1 kmNorth (10°)18.5 km/h50.8 mmClear
9:53 AM-7.8 °C-14.4 °C60 %1039.6 hPa16.1 kmNNE (20°)16.7 km/h1.78 mmClear
10:53 AM-6.7 °C-13.3 °C60 %1039.3 hPa16.1 kmNNE (30°)20.4 km/h0 mmClear
11:53 AM-5.6 °C-13.3 °C55 %1038.3 hPa14.5 kmNE (40°)20.4 km/h0 mmSnowLight Snow
12:53 PM-4.4 °C-12.8 °C53 %1036.6 hPa14.5 kmNNE (30°)22.2 km/h0 mmSnowLight Snow
1:53 PM-4.4 °C-12.2 °C55 %1035.6 hPa14.5 kmNorth (10°)24.1 km/h0 mmSnowLight Snow
2:53 PM-4.4 °C-12.8 °C53 %1035.6 hPa14.5 kmNE (40°)13 km/h0 mmSnowLight Snow
3:53 PM-5 °C-12.8 °C55 %1034.9 hPa14.5 kmNNE (30°)13 km/h0 mmSnowLight Snow
4:53 PM-6.1 °C-13.9 °C55 %1034.2 hPa14.5 kmNE (40°)16.7 km/h0 mmSnowLight Snow
5:53 PM-6.7 °C-13.9 °C57 %1033.9 hPa14.5 kmNNE (30°)20.4 km/h0 mmSnowLight Snow
6:53 PM-6.7 °C-13.9 °C57 %1033.9 hPa14.5 kmNNE (30°)18.5 km/h0 mmSnowLight Snow
7:53 PM-6.7 °C-13.3 °C60 %1033.9 hPa14.5 kmNNE (20°)18.5 km/h0 mmSnowLight Snow
8:53 PM-6.1 °C-12.8 °C60 %1033.5 hPa14.5 kmNNE (20°)18.5 km/h0 mmSnowLight Snow
9:53 PM-6.1 °C-12.8 °C60 %1032.2 hPa14.5 kmNNE (20°)22.2 km/h0 mmSnowLight Snow
10:53 PM-6.1 °C-12.2 °C63 %1031.2 hPa14.5 kmNNE (30°)24.1 km/h0 mmSnowLight Snow
11:53 PM-5.6 °C-11.7 °C63 %1030.8 hPa14.5 kmNE (50°)16.7 km/h0 mmSnowLight Snow
Hourly data recorded from KPOF, located 0 kilometers away from Malden, Missouri







STORIES FROM OUR PARTNERS